Osceola Municipal, IA

3:39 AM CDT on May 24, 2017 (GMT -0500)
Osceola Municipal

Weather History for KI75 - March, 2013

Change the Weather History Date:

Monday, March 25, 2013

  Actual Average (KCNC) Record (KCNC)
Temperature  
Mean Temperature 28 °F -  
Max Temperature 32 °F 50 °F 77 °F (1956)
Min Temperature 25 °F 31 °F 5 °F (1965)
Degree Days  
Heating Degree Days 36    
Moisture  
Dew Point 23 °F    
Average Humidity 80    
Maximum Humidity 94    
Minimum Humidity 63    
Precipitation  
Precipitation 0.00 in - - ()
Sea Level Pressure  
Sea Level Pressure 30.08 in    
Wind  
Wind Speed 12 mph (NW)    
Max Wind Speed 24 mph    
Max Gust Speed 30 mph    
Visibility 7 miles    
Events Snow    
Averages and records for this station are not official NWS values.
T = Trace of Precipitation, MM = Missing Value Source: NWS Daily Summary

Daily Weather History Graph

Daily Weather History Graph

Search for Another Location

Airport or City:

Trip Planner

Search our weather history database for the weather conditions in past years. The results will help you decide how hot, cold, wet, or windy it might be!

Date:

Astronomy

Mar. 25, 2013 Rise Set
Actual Time 7:09 AM CDT 7:32 PM CDT
Civil Twilight 6:41 AM CDT 8:00 PM CDT
Nautical Twilight 6:09 AM CDT 8:32 PM CDT
Astronomical Twilight 5:36 AM CDT 9:05 PM CDT
Moon 6:04 PM CDT (3/25) 5:53 AM CDT (3/25)
Length of Visible Light 13h 18m
Length of Day
12h 23m
Waxing Gibbous, 96% of the Moon is Illuminated
Mar 25
Waxing Gibbous
Mar 27
Full
Apr 2
Last Quarter
Apr 10
New
Apr 18
First Quarter

Hourly Weather History & Observations

Time (CDT) Temp. Windchill Dew Point Humidity Pressure Visibility Wind Dir Wind Speed Gust Speed Precip Events Conditions
12:15 AM 27.5 °F 18.6 °F 25.7 °F 93% 29.95 in 2.0 mi NW 9.2 mph - N/A Snow Light Snow
12:35 AM 27.5 °F 18.0 °F 25.7 °F 93% 29.95 in 2.0 mi NW 10.4 mph - N/A Snow Light Snow
12:55 AM 27.5 °F 18.6 °F 25.7 °F 93% 29.95 in 2.5 mi NW 9.2 mph - N/A Snow Light Snow
1:15 AM 27.5 °F 18.0 °F 25.7 °F 93% 29.95 in 2.5 mi NNW 10.4 mph - N/A Snow Light Snow
1:35 AM 27.3 °F 18.4 °F 25.5 °F 93% 29.95 in 2.5 mi NW 9.2 mph - N/A Snow Light Snow
1:55 AM 27.3 °F 18.4 °F 25.7 °F 94% 29.95 in 3.0 mi NW 9.2 mph - N/A Snow Light Snow
2:15 AM 27.3 °F 16.6 °F 25.5 °F 93% 29.96 in 3.0 mi NW 12.7 mph - N/A Snow Light Snow
2:35 AM 27.3 °F 17.1 °F 25.5 °F 93% 29.96 in 2.5 mi NW 11.5 mph - N/A Snow Light Snow
2:55 AM 27.3 °F 17.1 °F 25.5 °F 93% 29.96 in 2.5 mi NW 11.5 mph - N/A Snow Light Snow
3:15 AM 27.1 °F 16.4 °F 25.2 °F 92% 29.95 in 2.5 mi NW 12.7 mph - N/A Snow Light Snow
3:35 AM 27.0 °F 16.1 °F 25.2 °F 93% 29.95 in 2.5 mi NW 12.7 mph - N/A Snow Light Snow
3:55 AM 27.0 °F 16.7 °F 25.2 °F 93% 29.95 in 2.5 mi NW 11.5 mph 17.3 mph N/A Snow Light Snow
4:15 AM 27.0 °F 16.1 °F 25.2 °F 93% 29.95 in 3.0 mi NW 12.7 mph - N/A   Overcast
4:35 AM 27.0 °F 17.3 °F 25.2 °F 93% 29.95 in 4.0 mi NW 10.4 mph - N/A   Overcast
4:55 AM 27.1 °F 16.4 °F 25.3 °F 93% 29.95 in 3.0 mi NW 12.7 mph - N/A   Overcast
5:15 AM 27.3 °F 17.1 °F 25.3 °F 92% 29.96 in 4.0 mi NW 11.5 mph 16.1 mph N/A   Overcast
5:35 AM 27.5 °F 16.3 °F 25.5 °F 92% 29.97 in 2.5 mi NW 13.8 mph 18.4 mph N/A Snow Light Snow
5:55 AM 27.5 °F 17.4 °F 25.7 °F 93% 29.97 in 2.0 mi NW 11.5 mph - N/A Snow Light Snow
6:15 AM 27.5 °F 18.0 °F 25.5 °F 92% 29.98 in 2.0 mi NW 10.4 mph - N/A Snow Light Snow
6:35 AM 27.3 °F 15.6 °F 25.5 °F 93% 29.98 in 2.0 mi NW 15.0 mph - N/A Snow Light Snow
6:55 AM 26.6 °F 14.7 °F 24.6 °F 92% 29.99 in 3.0 mi NW 15.0 mph - N/A Snow Light Snow
7:15 AM 26.2 °F 14.2 °F 23.9 °F 91% 30.00 in 4.0 mi NW 15.0 mph - N/A Snow Light Snow
7:35 AM 25.9 °F 13.3 °F 23.7 °F 92% 30.01 in 1.2 mi NW 16.1 mph 20.7 mph N/A Snow Light Snow
7:55 AM 25.7 °F 14.0 °F 23.7 °F 92% 30.02 in 1.2 mi NW 13.8 mph - N/A Snow Light Snow
8:15 AM 25.7 °F 13.1 °F 23.7 °F 92% 30.02 in 1.5 mi NW 16.1 mph - N/A Snow Light Snow
8:35 AM 25.7 °F 14.6 °F 23.5 °F 92% 30.03 in 1.0 mi NW 12.7 mph - N/A Snow Light Snow
8:55 AM 26.1 °F 15.0 °F 23.5 °F 90% 30.04 in 1.2 mi NW 12.7 mph 19.6 mph N/A Snow Light Snow
9:15 AM 26.2 °F 13.8 °F 23.5 °F 90% 30.04 in 1.5 mi WNW 16.1 mph 20.7 mph N/A Snow Light Snow
9:35 AM 26.6 °F 14.3 °F 23.4 °F 88% 30.05 in 10.0 mi NW 16.1 mph 21.9 mph N/A   Overcast
9:55 AM 27.3 °F 15.2 °F 22.6 °F 83% 30.05 in 10.0 mi NW 16.1 mph 25.3 mph N/A   Overcast
10:15 AM 27.5 °F 15.0 °F 22.3 °F 81% 30.06 in 10.0 mi NW 17.3 mph 24.2 mph N/A   Overcast
10:35 AM 27.5 °F 16.3 °F 22.1 °F 80% 30.07 in 10.0 mi NW 13.8 mph 21.9 mph N/A   Overcast
10:55 AM 27.9 °F 17.3 °F 22.1 °F 79% 30.08 in 10.0 mi NNW 12.7 mph 19.6 mph N/A   Overcast
11:15 AM 28.4 °F 15.1 °F 21.4 °F 75% 30.08 in 10.0 mi NNW 20.7 mph 25.3 mph N/A   Overcast
11:35 AM 28.8 °F 14.6 °F 19.4 °F 68% 30.09 in 10.0 mi NNW 24.2 mph 29.9 mph N/A   Mostly Cloudy
11:55 AM 28.9 °F 16.1 °F 19.8 °F 69% 30.09 in 10.0 mi NNW 19.6 mph 25.3 mph N/A   Mostly Cloudy
12:15 PM 29.3 °F 16.2 °F 20.3 °F 69% 30.09 in 10.0 mi NNW 20.7 mph - N/A   Overcast
12:35 PM 29.8 °F 17.7 °F 21.0 °F 70% 30.09 in 10.0 mi NW 18.4 mph - N/A   Overcast
12:55 PM 30.6 °F 19.0 °F 21.4 °F 69% 30.09 in 10.0 mi NNW 17.3 mph - N/A   Overcast
1:15 PM 30.9 °F 19.4 °F 21.4 °F 68% 30.09 in 10.0 mi NW 17.3 mph 23.0 mph N/A   Overcast
1:35 PM 31.1 °F 19.3 °F 21.2 °F 67% 30.10 in 10.0 mi NW 18.4 mph 25.3 mph N/A   Overcast
1:55 PM 31.6 °F 21.2 °F 21.7 °F 67% 30.10 in 10.0 mi NNW 15.0 mph - N/A   Overcast
2:15 PM 31.6 °F 20.4 °F 21.0 °F 65% 30.10 in 10.0 mi NW 17.3 mph 25.3 mph N/A   Mostly Cloudy
2:35 PM 32.0 °F 20.8 °F 20.8 °F 63% 30.11 in 10.0 mi NW 17.3 mph - N/A   Mostly Cloudy
2:55 PM 32.0 °F 21.2 °F 21.2 °F 64% 30.12 in 10.0 mi NW 16.1 mph 21.9 mph N/A   Scattered Clouds
3:15 PM 32.0 °F 21.6 °F 21.6 °F 65% 30.12 in 10.0 mi NW 15.0 mph 20.7 mph N/A   Mostly Cloudy
3:35 PM 32.0 °F 20.5 °F 21.6 °F 65% 30.12 in 10.0 mi NW 18.4 mph 25.3 mph N/A   Mostly Cloudy
3:55 PM 32.0 °F 20.5 °F 21.7 °F 66% 30.13 in 10.0 mi NW 18.4 mph 24.2 mph N/A   Mostly Cloudy
4:15 PM 31.8 °F 20.6 °F 21.2 °F 65% 30.13 in 10.0 mi NW 17.3 mph 24.2 mph N/A   Mostly Cloudy
4:35 PM 31.8 °F 21.0 °F 21.2 °F 65% 30.14 in 10.0 mi NW 16.1 mph 21.9 mph N/A   Mostly Cloudy
4:55 PM 31.8 °F 22.3 °F 21.9 °F 67% 30.15 in 10.0 mi NW 12.7 mph - N/A   Overcast
5:15 PM 31.8 °F 21.0 °F 21.4 °F 65% 30.15 in 10.0 mi NW 16.1 mph 19.6 mph N/A   Mostly Cloudy
5:35 PM 31.8 °F 21.4 °F 21.6 °F 66% 30.15 in 10.0 mi NW 15.0 mph - N/A   Overcast
5:55 PM 31.8 °F 21.8 °F 21.6 °F 66% 30.16 in 10.0 mi NW 13.8 mph - N/A   Mostly Cloudy
6:15 PM 31.8 °F 22.8 °F 21.7 °F 66% 30.16 in 10.0 mi NW 11.5 mph - N/A   Mostly Cloudy
6:35 PM 31.6 °F 21.6 °F 21.7 °F 67% 30.17 in 10.0 mi WNW 13.8 mph 18.4 mph N/A   Overcast
6:55 PM 31.6 °F 22.1 °F 21.9 °F 67% 30.18 in 10.0 mi WNW 12.7 mph - N/A   Overcast
7:15 PM 30.9 °F 22.2 °F 22.8 °F 72% 30.18 in 10.0 mi WNW 10.4 mph - N/A   Overcast
7:35 PM 30.2 °F 21.9 °F 22.1 °F 72% 30.19 in 10.0 mi WNW 9.2 mph - N/A   Overcast
7:55 PM 29.8 °F 21.5 °F 22.1 °F 73% 30.20 in 10.0 mi WNW 9.2 mph - N/A   Scattered Clouds
8:15 PM 29.3 °F 22.3 °F 21.7 °F 73% 30.20 in 10.0 mi WNW 6.9 mph - N/A   Mostly Cloudy
8:35 PM 29.1 °F 22.1 °F 21.2 °F 72% 30.20 in 10.0 mi NW 6.9 mph - N/A   Overcast
8:55 PM 28.6 °F 21.5 °F 20.5 °F 72% 30.21 in 10.0 mi NW 6.9 mph - N/A   Overcast
9:15 PM 27.1 °F 20.7 °F 19.6 °F 73% 30.21 in 10.0 mi WNW 5.8 mph - N/A   Mostly Cloudy
9:35 PM 25.5 °F 17.8 °F 19.4 °F 78% 30.22 in 10.0 mi WNW 6.9 mph - N/A   Mostly Cloudy
9:55 PM 25.7 °F 18.0 °F 19.6 °F 78% 30.23 in 10.0 mi WNW 6.9 mph - N/A   Overcast
10:15 PM 25.9 °F 18.2 °F 20.1 °F 79% 30.23 in 10.0 mi West 6.9 mph - N/A   Overcast
10:35 PM 26.4 °F 18.9 °F 20.7 °F 79% 30.24 in 10.0 mi WNW 6.9 mph - N/A   Overcast
10:55 PM 27.3 °F 18.4 °F 22.1 °F 81% 30.24 in 10.0 mi WNW 9.2 mph - N/A   Overcast
11:15 PM 27.9 °F 18.4 °F 23.0 °F 82% 30.25 in 10.0 mi WNW 10.4 mph - N/A   Overcast
11:35 PM 27.7 °F 18.8 °F 23.0 °F 83% 30.25 in 10.0 mi WNW 9.2 mph - N/A   Overcast
11:55 PM 27.3 °F 17.7 °F 23.0 °F 84% 30.25 in 10.0 mi WNW 10.4 mph - N/A   Overcast